This demonstration page uses our WeatherBlox Daily Observations layout. Learn more.

39.92423, -83.80882

Hourly Observations for June 12, 2019

Temp ( °F °C ) Dew Point ( °F °C ) Humidity (%) Winds ( mph kmh ) Pressure ( in mb ) Visibility ( mi km ) Precip ( " mm )
12:56 am 00:56 Clear 60 15.6 50 10 70 70 SE 5 7 30.13 1020 10 16.0934 0 0
1:56 am 01:56 Clear 57 13.9 50 10 78 78 ESE 5 7 30.12 1020 10 16.0934 0 0
2:56 am 02:56 Clear 54 12.2 50 10 87 87 E 5 7 30.11 1020 10 16.0934 0 0
3:56 am 03:56 Clear 55 12.8 50 10 83 83 Calm 30.09 1019 10 16.0934 0 0
4:56 am 04:56 Clear 55 12.8 50 10 83 83 Calm 30.08 1019 10 16.0934 0 0
5:56 am 05:56 Clear 51 10.6 50 10 96 96 E 3 6 30.09 1019 10 16.0934 0 0
6:56 am 06:56 Sunny 54 12.2 51 10.6 90 90 E 6 9 30.08 1019 8 12.87472 0 0
7:56 am 07:56 Sunny 61 16.1 50 10 67 67 ESE 12 19 30.06 1018 10 16.0934 0 0
8:56 am 08:56 Sunny 65 18.3 50 10 59 59 ESE 12 19 30.05 1018 10 16.0934 0 0
10:56 am 10:56 Sunny 71 21.7 54 12.2 55 55 ESE 16 26 29.99 1016 10 16.0934 0 0
11:56 am 11:56 Sunny 73 22.8 54 12.2 51 51 SE 13 20 29.96 1015 10 16.0934 0 0
12:56 pm 12:56 Sunny 75 23.9 54 12.2 48 48 SSE 14 22 29.92 1013 10 16.0934 0 0
1:56 pm 13:56 Sunny 75 23.9 54 12.2 48 48 S 12 19 29.91 1013 10 16.0934 0 0
2:56 pm 14:56 Sunny 76 24.4 57 13.9 52 52 SSE 14 22 29.9 1012 10 16.0934 0 0
3:56 pm 15:56 Sunny 74 23.3 57 13.9 56 56 S 10 17 29.88 1012 10 16.0934 0 0
4:56 pm 16:56 Sunny 75 23.9 59 15 58 58 S 13 20 29.85 1011 10 16.0934 0 0
5:56 pm 17:56 Mostly Cloudy 74 23.3 59 15 60 60 S 13 20 29.83 1010 10 16.0934 0 0
6:56 pm 18:56 Cloudy with Heavy Rain 67 19.4 62 16.7 84 84 S 13 20 29.83 1010 5 8.0467 0.05 1.27
7:56 pm 19:56 Cloudy with Rain 64 17.8 63 17.2 96 96 SSE 16 26 29.82 1010 7 11.26538 0.06 1.524
8:25 pm 20:25 Cloudy with Nearby Thunderstorms 63 17 63 17 100 100 S 10 17 29.81 1010 4 6.43736 0.24 6.096
8:34 pm 20:34 Cloudy with Nearby Thunderstorms 63 17 63 17 100 100 S 10 17 29.81 1010 6 9.65604 0.27 6.858
8:51 pm 20:51 Cloudy with Rain 63 17 63 17 100 100 SSW 7 11 29.81 1010 7 11.26538 0.32 8.128
8:56 pm 20:56 Cloudy with Heavy Rain 63 17.2 63 17.2 100 100 S 8 13 29.83 1010 6 9.65604 0.34 8.636
9:33 pm 21:33 Cloudy with Light Rain 63 17 63 17 100 100 S 10 17 29.81 1010 10 16.0934 0.04 1.016
9:56 pm 21:56 Cloudy with Light Rain 62 16.7 62 16.7 100 100 SE 12 19 29.79 1009 10 16.0934 0.04 1.016
10:48 pm 22:48 Cloudy 63 17 63 17 100 100 S 7 11 29.79 1009 10 16.0934 0.01 0.254
10:56 pm 22:56 Cloudy 62 16.7 62 16.7 100 100 SSE 10 17 29.8 1009 10 16.0934 0.01 0.254
11:36 pm 23:36 Cloudy 63 17 61 16 94 94 S 8 13 29.79 1009 10 16.0934 0 0
11:56 pm 23:56 Cloudy 62 16.7 61 16.1 96 96 S 7 11 29.79 1009 10 16.0934 0 0

Powered by AerisWeather